Вернуться в каталог

STARLINK-32885

АктивенСвязьVLEO
NORAD 62958·PAYLOAD·🇺🇸 United States

Запущен Feb 11, 2025 с Vandenberg Space Force Base

Loading…

Ближайшие Пролёты (ближайшие 24 часа)

TLE

СвежийSource: CelesTrak SupGP

Эпоха: Sep 15, 2026, 02:26 UTC

1 62958C 25029L   26258.10187500 -.00028486  00000+0 -84160-3 0  2582
2 62958  53.1586  66.7912 0001189  81.3432 151.9308 15.34405966    12

Отслеживайте STARLINK-32885 в реальном времени с AllMySat

Download on the App Store